1998-067HY

Last updated on Thu May 19 2016 08:36:27 GMT+0100 (British Summer Time)

1 41478U 98067HY 16140.16793241 .00024153 00000-0 35384-3 0 9990 2 41478 51.6407 202.7899 0002350 15.2832 93.6628 15.55426472 327

Satellite not in orbit